TimeCST,TemperatureF,Dew PointF,Humidity,Sea Level PressureIn,VisibilityMPH,Wind Direction,Wind SpeedMPH,Gust SpeedMPH,PrecipitationIn,Events,Conditions,WindDirDegrees,DateUTC
12:32 AM,59.0,46.4,63,29.92,10.0,NNE,17.3,25.3,N/A,,Overcast,20,2013-02-23 06:32:00
12:53 AM,59.0,46.0,62,29.93,10.0,NNE,16.1,-,N/A,,Overcast,20,2013-02-23 06:53:00
1:53 AM,59.0,46.9,64,29.94,10.0,North,16.1,-,N/A,,Overcast,10,2013-02-23 07:53:00
2:53 AM,57.0,45.0,64,29.95,10.0,North,13.8,-,N/A,,Overcast,350,2013-02-23 08:53:00
3:53 AM,55.0,43.0,64,29.95,10.0,North,13.8,-,N/A,,Overcast,350,2013-02-23 09:53:00
4:41 AM,53.6,41.0,62,29.95,10.0,NNW,17.3,-,N/A,,Mostly Cloudy,340,2013-02-23 10:41:00
4:53 AM,54.0,39.9,59,29.93,10.0,North,16.1,-,N/A,,Scattered Clouds,360,2013-02-23 10:53:00
5:32 AM,53.6,39.2,58,29.97,10.0,North,10.4,-,N/A,,Mostly Cloudy,360,2013-02-23 11:32:00
5:53 AM,51.8,39.2,62,29.96,10.0,North,11.5,-,N/A,,Scattered Clouds,360,2013-02-23 11:53:00
6:03 AM,53.6,39.2,58,29.96,10.0,North,9.2,-,N/A,,Mostly Cloudy,10,2013-02-23 12:03:00
6:16 AM,51.8,39.2,62,29.95,10.0,North,13.8,-,N/A,,Scattered Clouds,360,2013-02-23 12:16:00
6:53 AM,51.1,39.9,66,29.97,10.0,North,10.4,-,N/A,,Scattered Clouds,10,2013-02-23 12:53:00
7:53 AM,51.1,39.9,66,29.97,10.0,NNE,10.4,-,N/A,,Clear,20,2013-02-23 13:53:00
8:53 AM,54.0,42.1,64,29.97,10.0,North,15.0,-,N/A,,Clear,10,2013-02-23 14:53:00
9:53 AM,59.0,44.1,58,29.98,10.0,NE,10.4,-,N/A,,Clear,40,2013-02-23 15:53:00
10:53 AM,63.0,46.0,54,30.01,10.0,NNW,6.9,-,N/A,,Clear,340,2013-02-23 16:53:00
11:53 AM,64.9,46.0,50,30.00,10.0,NNW,8.1,-,N/A,,Clear,330,2013-02-23 17:53:00
12:53 PM,68.0,46.9,47,29.97,10.0,Variable,6.9,-,N/A,,Clear,0,2013-02-23 18:53:00
1:53 PM,69.1,48.9,49,29.94,10.0,NW,8.1,-,N/A,,Partly Cloudy,320,2013-02-23 19:53:00
2:53 PM,68.0,48.9,50,29.92,10.0,NW,9.2,-,N/A,,Clear,320,2013-02-23 20:53:00
3:53 PM,68.0,46.9,47,29.90,10.0,NNW,5.8,-,N/A,,Clear,340,2013-02-23 21:53:00
4:53 PM,68.0,46.0,45,29.90,10.0,North,6.9,-,N/A,,Clear,10,2013-02-23 22:53:00
5:53 PM,64.9,46.0,50,29.89,10.0,NNE,5.8,-,N/A,,Clear,30,2013-02-23 23:53:00
6:53 PM,61.0,46.9,60,29.91,10.0,Calm,Calm,-,N/A,,Clear,0,2013-02-24 00:53:00
7:53 PM,60.1,46.9,62,29.92,10.0,ENE,4.6,-,N/A,,Clear,60,2013-02-24 01:53:00
8:53 PM,57.0,51.1,81,29.94,10.0,East,4.6,-,N/A,,Clear,90,2013-02-24 02:53:00
9:53 PM,55.9,52.0,87,29.95,8.0,East,4.6,-,N/A,,Clear,100,2013-02-24 03:53:00
10:37 PM,51.8,48.2,88,29.95,1.8,Calm,Calm,-,N/A,,Clear,0,2013-02-24 04:37:00
10:51 PM,50.0,46.4,87,29.95,2.0,NE,3.5,-,N/A,,Partly Cloudy,50,2013-02-24 04:51:00
10:52 PM,50.0,46.9,89,29.95,2.5,NE,3.5,-,N/A,,Partly Cloudy,50,2013-02-24 04:52:00
11:01 PM,50.0,46.4,87,29.94,5.0,NE,4.6,-,N/A,,Clear,40,2013-02-24 05:01:00
11:08 PM,50.0,46.4,87,29.94,1.8,NE,6.9,-,N/A,,Clear,50,2013-02-24 05:08:00
11:21 PM,50.0,46.4,87,29.94,2.5,NE,4.6,-,N/A,,Partly Cloudy,50,2013-02-24 05:21:00
11:25 PM,51.8,48.2,88,29.94,1.0,NE,5.8,-,N/A,,Mist,50,2013-02-24 05:25:00
11:35 PM,50.0,46.4,87,29.93,2.5,ENE,5.8,-,N/A,,Partly Cloudy,60,2013-02-24 05:35:00
11:41 PM,50.0,46.4,87,29.93,0.8,NE,5.8,-,N/A,,Mist,50,2013-02-24 05:41:00
11:53 PM,48.0,46.0,93,29.92,0.2,NE,6.9,-,N/A,Fog,Fog,50,2013-02-24 05:53:00